Date String (YYYY-MM-DD hh:mm:ss) UTC,Instrument flags,Ambient pressure (hPa),Sample flow (lpm),Bypass flow (lpm),Sample temperature (°C),Ambient temperature (°C),ASC tube jacket temperature (°C),LED temperature (°C),Box temperature (°C),Sample RH (%),Span deviation,Mass concentration (μg/m³),Mass concentration (μg/m³),Mass concentration (μg/m³)
DateTimeUTC,F1_M11,P_M11,Q1_M11,Q2_M11,T1_M11,T2_M11,T3_M11,T4_M11,T5_M11,U1_M11,ZSPAN_M11,X0_M11,X2_M11,X1_M11
2021-12-11 09:00:00,,0821.7,4.99,0.00,22.3,23.2,00.0,31.2,24.2,04.3,0000.0,0005.11,0001.32,0000.82
2021-12-11 09:01:00,,0821.8,5.00,0.00,22.3,22.8,00.0,31.2,24.1,04.2,0000.0,0004.97,0001.28,0000.82
2021-12-11 09:02:00,,0821.7,5.02,0.00,22.3,22.5,00.0,31.2,23.9,04.2,0000.0,0004.90,0001.26,0000.81
2021-12-11 09:03:00,,0821.7,4.98,0.00,22.2,22.1,00.0,31.2,23.8,04.2,0000.0,0004.98,0001.26,0000.83
2021-12-11 09:04:00,,0821.7,5.01,0.00,22.1,21.8,00.0,31.2,23.7,04.2,0000.0,0006.32,0001.25,0000.83
2021-12-11 09:05:00,,0821.8,4.99,0.00,22.1,21.6,00.0,31.1,23.5,04.2,0000.0,0006.68,0001.27,0000.83
2021-12-11 09:06:00,,0821.8,5.02,0.00,22.0,21.3,00.0,31.1,23.4,04.2,0000.0,0007.48,0001.29,0000.82
2021-12-11 09:07:00,,0821.8,4.98,0.00,21.9,21.2,00.0,31.1,23.3,04.3,0000.0,0007.99,0001.29,0000.82
2021-12-11 09:08:00,,0821.8,5.00,0.00,21.9,21.1,00.0,31.1,23.2,04.4,0000.0,0007.92,0001.33,0000.84
2021-12-11 09:09:00,,0821.8,5.02,0.00,21.8,21.1,00.0,31.0,23.3,04.4,0000.0,0006.64,0001.36,0000.84
2021-12-11 09:10:00,,0821.8,5.00,0.00,21.9,21.9,00.0,31.1,23.6,04.4,0000.0,0006.53,0001.35,0000.84
2021-12-11 09:11:00,,0821.7,5.00,0.00,22.1,22.7,00.0,31.1,23.9,04.3,0000.0,0006.51,0001.35,0000.85
2021-12-11 09:12:00,,0821.7,4.98,0.00,22.2,22.9,00.0,31.1,24.1,04.4,0000.0,0006.44,0001.34,0000.86
2021-12-11 09:13:00,,0821.6,5.01,0.00,22.2,22.6,00.0,31.1,24.0,04.4,0000.0,0006.30,0001.31,0000.86
2021-12-11 09:14:00,,0821.6,4.99,0.00,22.2,22.3,00.0,31.1,23.8,04.4,0000.0,0007.32,0001.33,0000.84
2021-12-11 09:15:00,,0821.7,5.01,0.00,22.1,22.0,00.0,31.1,23.7,04.5,0000.0,0006.11,0001.32,0000.85
2021-12-11 09:16:00,,0821.6,4.99,0.00,22.0,21.7,00.0,31.1,23.5,04.5,0000.0,0005.49,0001.28,0000.85
2021-12-11 09:17:00,,0821.6,5.02,0.00,22.0,21.5,00.0,31.1,23.4,04.5,0000.0,0004.81,0001.29,0000.86
2021-12-11 09:18:00,,0821.7,4.99,0.00,21.9,21.3,00.0,31.1,23.3,04.5,0000.0,0004.28,0001.30,0000.86
2021-12-11 09:19:00,,0821.7,5.00,0.00,21.8,21.1,00.0,31.0,23.2,04.5,0000.0,0003.61,0001.32,0000.86
2021-12-11 09:20:00,,0821.7,5.00,0.00,21.8,21.4,00.0,31.0,23.3,04.5,0000.0,0004.40,0001.33,0000.85
2021-12-11 09:21:00,,0821.6,4.99,0.00,22.0,22.2,00.0,31.1,23.7,04.5,0000.0,0005.14,0001.31,0000.85
2021-12-11 09:22:00,,0821.6,5.01,0.00,22.1,22.9,00.0,31.1,24.0,04.5,0000.0,0005.03,0001.29,0000.86
2021-12-11 09:23:00,,0821.6,4.99,0.00,22.3,23.3,00.0,31.1,24.2,04.5,0000.0,0005.15,0001.31,0000.87
2021-12-11 09:24:00,,0821.6,4.99,0.00,22.3,22.9,00.0,31.1,24.1,04.5,0000.0,0005.19,0001.32,0000.87
2021-12-11 09:25:00,,0821.6,5.01,0.00,22.2,22.5,00.0,31.1,23.9,04.5,0000.0,0004.52,0001.35,0000.88
2021-12-11 09:26:00,,0821.7,5.00,0.00,22.2,22.1,00.0,31.1,23.7,04.5,0000.0,0004.15,0001.32,0000.89
2021-12-11 09:27:00,,0821.7,5.00,0.00,22.1,21.8,00.0,31.1,23.6,04.6,0000.0,0004.19,0001.33,0000.89
2021-12-11 09:28:00,,0821.6,4.99,0.00,22.0,21.5,00.0,31.1,23.5,04.5,0000.0,0005.25,0001.28,0000.88
2021-12-11 09:29:00,,0821.8,4.99,0.00,22.0,21.3,00.0,31.1,23.4,04.5,0000.0,0006.06,0001.27,0000.89
2021-12-11 09:30:00,,0821.8,5.00,0.00,21.9,21.1,00.0,31.1,23.3,04.6,0000.0,0006.12,0001.25,0000.89
2021-12-11 09:31:00,,0821.8,5.00,0.00,21.8,21.0,00.0,31.0,23.2,04.6,0000.0,0005.42,0001.23,0000.89
2021-12-11 09:32:00,,0821.7,5.02,0.00,21.9,21.5,00.0,31.0,23.4,04.7,0000.0,0004.74,0001.26,0000.90
2021-12-11 09:33:00,,0821.8,5.00,0.00,22.0,22.4,00.0,31.1,23.8,04.6,0000.0,0004.78,0001.26,0000.89
2021-12-11 09:34:00,,0821.8,4.99,0.00,22.2,23.2,00.0,31.1,24.1,04.6,0000.0,0004.71,0001.25,0000.88
2021-12-11 09:35:00,,0821.8,5.00,0.00,22.3,23.2,00.0,31.2,24.2,04.6,0000.0,0004.98,0001.24,0000.89
2021-12-11 09:36:00,,0821.8,5.00,0.00,22.3,22.8,00.0,31.2,24.1,04.6,0000.0,0006.74,0001.22,0000.89
2021-12-11 09:37:00,,0821.8,5.00,0.00,22.3,22.4,00.0,31.2,23.9,04.3,0000.0,0007.67,0001.21,0000.88
2021-12-11 09:38:00,,0821.9,5.00,0.00,22.2,22.1,00.0,31.2,23.8,04.4,0000.0,0008.06,0001.22,0000.88
2021-12-11 09:39:00,,0821.8,4.99,0.00,22.1,21.8,00.0,31.2,23.7,04.5,0000.0,0007.36,0001.24,0000.89
2021-12-11 09:40:00,,0821.8,5.00,0.00,22.1,21.6,00.0,31.1,23.6,04.6,0000.0,0006.59,0001.25,0000.89
2021-12-11 09:41:00,,0821.8,5.01,0.00,22.0,21.4,00.0,31.1,23.4,04.6,0000.0,0006.38,0001.26,0000.90
2021-12-11 09:42:00,,0821.8,4.99,0.00,21.9,21.2,00.0,31.1,23.4,04.6,0000.0,0006.37,0001.27,0000.90
2021-12-11 09:43:00,,0821.8,5.00,0.00,21.9,21.1,00.0,31.1,23.3,04.6,0000.0,0006.34,0001.27,0000.89
2021-12-11 09:44:00,,0821.8,5.00,0.00,21.8,21.1,00.0,31.0,23.3,04.6,0000.0,0006.40,0001.28,0000.89
2021-12-11 09:45:00,,0821.8,5.02,0.00,21.9,21.8,00.0,31.1,23.5,04.6,0000.0,0006.68,0001.31,0000.89
2021-12-11 09:46:00,,0821.8,4.99,0.00,22.1,22.6,00.0,31.1,23.9,04.5,0000.0,0006.96,0001.30,0000.88
2021-12-11 09:47:00,,0821.8,5.01,0.00,22.2,23.3,00.0,31.1,24.2,04.5,0000.0,0005.22,0001.33,0000.88
2021-12-11 09:48:00,,0821.6,5.00,0.00,22.3,23.1,00.0,31.2,24.2,04.5,0000.0,0004.06,0001.32,0000.87
2021-12-11 09:49:00,,0821.7,5.00,0.00,22.3,22.7,00.0,31.2,24.0,04.4,0000.0,0003.83,0001.32,0000.87
2021-12-11 09:50:00,,0821.7,4.99,0.00,22.2,22.3,00.0,31.2,23.8,04.5,0000.0,0004.80,0001.29,0000.87
2021-12-11 09:51:00,,0821.7,5.01,0.00,22.1,21.9,00.0,31.2,23.6,04.4,0000.0,0004.67,0001.25,0000.86
2021-12-11 09:52:00,,0821.8,4.99,0.00,22.1,21.6,00.0,31.1,23.5,04.4,0000.0,0004.67,0001.25,0000.86
2021-12-11 09:53:00,,0821.7,5.01,0.00,22.0,21.4,00.0,31.1,23.4,04.4,0000.0,0004.56,0001.24,0000.87
2021-12-11 09:54:00,,0821.6,4.99,0.00,21.9,21.1,00.0,31.1,23.3,04.4,0000.0,0004.48,0001.21,0000.88
2021-12-11 09:55:00,,0821.6,5.00,0.00,21.8,21.0,00.0,31.1,23.2,04.5,0000.0,0004.38,0001.18,0000.88
2021-12-11 09:56:00,,0821.7,5.00,0.00,21.8,21.1,00.0,31.0,23.2,04.5,0000.0,0003.99,0001.15,0000.87
2021-12-11 09:57:00,,0821.6,4.99,0.00,21.9,21.8,00.0,31.1,23.5,04.5,0000.0,0003.59,0001.13,0000.87
2021-12-11 09:58:00,,0821.7,5.01,0.00,22.0,22.6,00.0,31.1,23.9,04.5,0000.0,0003.54,0001.12,0000.88
2021-12-11 09:59:00,,0821.6,4.99,0.00,22.2,23.2,00.0,31.2,24.2,04.5,0000.0,0003.63,0001.16,0000.89
